| time (UTC) | temp F | wind direction | speed MPH | gust MPH | rain 1hr in | rain 24hr in | rain mn in | humidity % | barometer mb |
| 20260906121613 | 56 | 132 | 0.0 | 0.0 | 0.00 | 0.00 | 0.00 | 92 | 1020.1 |
| 20260906120005 | 56 | 132 | 0.0 | 0.0 | 0.00 | 0.00 | 0.00 | 91 | 1019.8 |
| 20260906114645 | 56 | 132 | 0.0 | 0.0 | 0.00 | 0.00 | 0.00 | 91 | 1019.7 |
| 20260906113113 | 56 | 132 | 0.0 | 0.0 | 0.00 | 0.00 | 0.00 | 91 | 1019.4 |
| 20260906111604 | 56 | 202 | 0.0 | 0.0 | 0.00 | 0.00 | 0.00 | 91 | 1019.5 |
| 20260906110109 | 56 | 178 | 0.0 | 0.0 | 0.00 | 0.00 | 0.00 | 90 | 1019.2 |
| 20260906104508 | 56 | 178 | 0.0 | 0.0 | 0.00 | 0.00 | 0.00 | 90 | 1019.2 |
| 20260906103110 | 57 | 178 | 0.0 | 0.0 | 0.00 | 0.00 | 0.00 | 90 | 1019.0 |
| 20260906101619 | 57 | 178 | 0.0 | 0.0 | 0.00 | 0.00 | 0.00 | 90 | 1019.0 |
| 20260906100103 | 57 | 178 | 0.0 | 0.0 | 0.00 | 0.00 | 0.00 | 89 | 1018.9 |
| 20260906094644 | 58 | 178 | 0.0 | 0.0 | 0.00 | 0.00 | 0.00 | 89 | 1018.9 |
| 20260906093008 | 58 | 178 | 0.0 | 0.0 | 0.00 | 0.00 | 0.00 | 89 | 1018.9 |
| 20260906091626 | 58 | 176 | 0.0 | 0.0 | 0.00 | 0.00 | 0.00 | 89 | 1018.8 |
| 20260906090006 | 58 | 176 | 0.0 | 0.0 | 0.00 | 0.00 | 0.00 | 89 | 1018.6 |
| 20260906084609 | 59 | 176 | 0.0 | 0.0 | 0.00 | 0.00 | 0.00 | 89 | 1018.4 |
| 20260906083116 | 59 | 175 | 0.0 | 0.0 | 0.00 | 0.00 | 0.00 | 89 | 1018.4 |
| 20260906081607 | 59 | 173 | 0.0 | 0.0 | 0.00 | 0.00 | 0.00 | 89 | 1018.3 |
| 20260906080114 | 59 | 173 | 0.0 | 0.0 | 0.00 | 0.00 | 0.00 | 89 | 1018.3 |
| 20260906074615 | 59 | 173 | 0.0 | 0.0 | 0.00 | 0.00 | 0.00 | 89 | 1018.2 |
| 20260906073115 | 59 | 173 | 0.0 | 0.0 | 0.00 | 0.00 | 0.00 | 88 | 1018.0 |
| 20260906071607 | 60 | 173 | 0.0 | 0.0 | 0.00 | 0.00 | 0.00 | 87 | 1018.1 |
| 20260906070113 | 60 | 173 | 0.0 | 0.0 | 0.00 | 0.00 | 0.00 | 86 | 1018.2 |
| 20260906064603 | 61 | 173 | 0.0 | 0.0 | 0.00 | 0.00 | 0.00 | 85 | 1018.3 |
| 20260906063112 | 62 | 173 | 0.0 | 0.0 | 0.00 | 0.00 | 0.00 | 84 | 1018.2 |
| 20260906061507 | 62 | 173 | 0.0 | 0.0 | 0.00 | 0.00 | 0.00 | 83 | 1018.0 |
| 20260906060116 | 63 | 173 | 0.0 | 0.0 | 0.00 | 0.00 | 0.00 | 82 | 1018.0 |
| 20260906054619 | 64 | 173 | 0.0 | 0.0 | 0.00 | 0.00 | 0.00 | 82 | 1018.0 |
| 20260906053109 | 64 | 173 | 0.0 | 0.0 | 0.00 | 0.00 | 0.00 | 80 | 1017.8 |
| 20260906051615 | 65 | 144 | 0.0 | 0.0 | 0.00 | 0.00 | 0.00 | 80 | 1017.7 |
| 20260906050136 | 66 | 84 | 0.0 | 0.0 | 0.00 | 0.00 | 0.00 | 80 | 1017.6 |
| 20260906044609 | 66 | 37 | 0.0 | 1.0 | 0.00 | 0.00 | 0.00 | 80 | 1017.4 |
| 20260906043119 | 67 | 153 | 0.0 | 0.0 | 0.00 | 0.00 | 0.00 | 80 | 1017.4 |
| 20260906041609 | 67 | 60 | 0.0 | 0.0 | 0.00 | 0.00 | 0.00 | 80 | 1017.2 |
| 20260906040141 | 68 | 62 | 0.0 | 0.0 | 0.00 | 0.00 | 0.00 | 79 | 1017.2 |
| 20260906034609 | 69 | 149 | 0.0 | 0.0 | 0.00 | 0.00 | 0.00 | 80 | 1017.1 |
| 20260906033118 | 69 | 108 | 0.0 | 2.0 | 0.00 | 0.00 | 0.00 | 81 | 1017.1 |
| 20260906031607 | 69 | 128 | 0.0 | 1.0 | 0.00 | 0.00 | 0.00 | 82 | 1017.1 |
| 20260906030114 | 69 | 115 | 0.0 | 2.0 | 0.00 | 0.00 | 0.00 | 84 | 1017.0 |
| 20260906024505 | 68 | 283 | 0.0 | 0.0 | 0.00 | 0.00 | 0.00 | 85 | 1017.0 |
| 20260906023108 | 68 | 113 | 0.0 | 0.0 | 0.00 | 0.00 | 0.00 | 86 | 1016.4 |
| 20260906021622 | 68 | 147 | 0.0 | 0.0 | 0.00 | 0.00 | 0.00 | 88 | 1016.4 |
| 20260906020005 | 68 | 84 | 0.0 | 1.0 | 0.00 | 0.00 | 0.00 | 89 | 1016.5 |
| 20260906014613 | 69 | 334 | 0.0 | 0.0 | 0.00 | 0.00 | 0.00 | 89 | 1016.3 |
| 20260906013120 | 69 | 334 | 0.0 | 0.0 | 0.00 | 0.00 | 0.00 | 88 | 1016.2 |
| 20260906011612 | 70 | 334 | 0.0 | 0.0 | 0.00 | 0.00 | 0.00 | 87 | 1016.1 |
| 20260906010121 | 71 | 334 | 0.0 | 0.0 | 0.00 | 0.00 | 0.00 | 87 | 1015.7 |
| 20260906004608 | 71 | 334 | 0.0 | 0.0 | 0.00 | 0.00 | 0.00 | 85 | 1015.6 |
| 20260906003112 | 72 | 334 | 0.0 | 0.0 | 0.00 | 0.00 | 0.00 | 84 | 1015.5 |
| 20260906001503 | 74 | 334 | 0.0 | 0.0 | 0.00 | 0.00 | 0.00 | 83 | 1015.5 |
| 20260906000108 | 74 | 334 | 0.0 | 0.0 | 0.00 | 0.00 | 0.00 | 82 | 1015.5 |
| 20260905234621 | 75 | 70 | 0.0 | 0.0 | 0.00 | 0.00 | 0.00 | 81 | 1015.3 |
| 20260905233113 | 76 | 70 | 0.0 | 0.0 | 0.00 | 0.00 | 0.00 | 81 | 1015.5 |
| 20260905231615 | 76 | 208 | 0.0 | 0.0 | 0.00 | 0.00 | 0.00 | 81 | 1015.4 |
| 20260905230118 | 77 | 19 | 0.0 | 0.0 | 0.00 | 0.00 | 0.00 | 78 | 1015.4 |
| 20260905224506 | 77 | 57 | 0.0 | 3.0 | 0.00 | 0.00 | 0.00 | 76 | 1015.1 |
| 20260905223109 | 77 | 334 | 0.0 | 8.0 | 0.00 | 0.00 | 0.00 | 77 | 1015.1 |
| 20260905221515 | 76 | 90 | 0.0 | 0.0 | 0.00 | 0.00 | 0.00 | 79 | 1015.0 |
| 20260905220109 | 76 | 199 | 0.0 | 3.0 | 0.00 | 0.00 | 0.00 | 81 | 1014.9 |
| 20260905214502 | 75 | 17 | 0.0 | 0.0 | 0.00 | 0.00 | 0.00 | 83 | 1014.9 |
| 20260905213110 | 74 | 277 | 0.0 | 0.0 | 0.00 | 0.00 | 0.00 | 83 | 1014.8 |
| 20260905211614 | 74 | 70 | 0.0 | 0.0 | 0.00 | 0.00 | 0.00 | 83 | 1014.7 |
| 20260905210116 | 74 | 98 | 0.0 | 9.0 | 0.00 | 0.00 | 0.00 | 82 | 1014.8 |
| 20260905204610 | 74 | 120 | 2.0 | 10.0 | 0.00 | 0.00 | 0.00 | 83 | 1014.8 |
| 20260905203003 | 74 | 93 | 0.0 | 7.0 | 0.00 | 0.00 | 0.00 | 83 | 1015.0 |
| 20260905201610 | 75 | 104 | 0.0 | 7.0 | 0.00 | 0.00 | 0.00 | 83 | 1015.1 |
| 20260905200154 | 74 | 360 | 0.0 | 6.0 | 0.00 | 0.00 | 0.00 | 85 | 1015.0 |
| 20260905194619 | 74 | 47 | 0.0 | 2.0 | 0.00 | 0.00 | 0.00 | 85 | 1015.0 |
| 20260905193113 | 74 | 34 | 0.0 | 4.0 | 0.00 | 0.00 | 0.00 | 85 | 1015.1 |
| 20260905191506 | 74 | 95 | 1.0 | 5.0 | 0.00 | 0.00 | 0.00 | 84 | 1015.2 |
| 20260905190110 | 74 | 115 | 0.0 | 6.0 | 0.00 | 0.00 | 0.00 | 85 | 1015.1 |
| 20260905184517 | 74 | 351 | 0.0 | 1.0 | 0.00 | 0.00 | 0.00 | 85 | 1015.2 |
| 20260905183117 | 74 | 41 | 0.0 | 3.0 | 0.00 | 0.00 | 0.00 | 85 | 1015.1 |
| 20260905181613 | 74 | 341 | 0.0 | 3.0 | 0.00 | 0.00 | 0.00 | 85 | 1015.1 |
| 20260905180112 | 74 | 350 | 0.0 | 5.0 | 0.00 | 0.00 | 0.00 | 86 | 1015.2 |
| 20260905174612 | 74 | 5 | 0.0 | 0.0 | 0.00 | 0.00 | 0.00 | 87 | 1015.1 |
| 20260905173101 | 74 | 230 | 0.0 | 3.0 | 0.00 | 0.00 | 0.00 | 88 | 1015.1 |
| 20260905171609 | 73 | 32 | 0.0 | 3.0 | 0.00 | 0.00 | 0.00 | 89 | 1015.3 |
| 20260905170120 | 72 | 238 | 0.0 | 4.0 | 0.00 | 0.00 | 0.00 | 89 | 1015.4 |
| 20260905164606 | 72 | 11 | 0.0 | 1.0 | 0.00 | 0.06 | 0.00 | 89 | 1015.4 |
| 20260905163119 | 72 | 355 | 0.0 | 6.0 | 0.00 | 0.06 | 0.00 | 89 | 1015.3 |
| 20260905161611 | 72 | 8 | 0.0 | 0.0 | 0.00 | 0.06 | 0.00 | 88 | 1015.2 |
| 20260905160117 | 72 | 138 | 0.0 | 0.0 | 0.00 | 0.06 | 0.00 | 89 | 1015.2 |
| 20260905154504 | 72 | 61 | 0.0 | 3.0 | 0.00 | 0.11 | 0.00 | 90 | 1015.1 |
| 20260905153112 | 72 | 97 | 0.0 | 0.0 | 0.00 | 0.11 | 0.00 | 90 | 1015.1 |
| 20260905151617 | 72 | 326 | 0.0 | 1.0 | 0.00 | 0.11 | 0.00 | 89 | 1015.1 |
| 20260905150107 | 72 | 176 | 0.0 | 0.0 | 0.00 | 0.11 | 0.00 | 89 | 1015.1 |
| 20260905144612 | 72 | 97 | 0.0 | 1.0 | 0.00 | 0.14 | 0.00 | 89 | 1014.7 |
| 20260905143105 | 73 | 63 | 0.0 | 0.0 | 0.00 | 0.14 | 0.00 | 89 | 1014.7 |
| 20260905141613 | 73 | 99 | 0.0 | 2.0 | 0.00 | 0.14 | 0.00 | 90 | 1014.7 |
| 20260905140123 | 73 | 118 | 0.0 | 0.0 | 0.00 | 0.14 | 0.00 | 91 | 1014.5 |
| 20260905134611 | 73 | 185 | 0.0 | 0.0 | 0.00 | 0.21 | 0.00 | 92 | 1014.5 |
| 20260905133113 | 73 | 7 | 0.0 | 0.0 | 0.00 | 0.21 | 0.00 | 92 | 1014.4 |
| 20260905131505 | 72 | 109 | 0.0 | 2.0 | 0.00 | 0.21 | 0.00 | 93 | 1014.2 |
| 20260905130114 | 71 | 88 | 0.0 | 0.0 | 0.00 | 0.21 | 0.00 | 93 | 1014.2 |
| 20260905124618 | 71 | 88 | 0.0 | 0.0 | 0.00 | 0.22 | 0.00 | 93 | 1014.1 |
| 20260905123109 | 71 | 88 | 0.0 | 0.0 | 0.00 | 0.22 | 0.00 | 93 | 1014.1 |